Weather History for Boulder City, NV

Change the Weather History Date:

Thursday, July 4, 2013

  Actual Average (KLAS) Record (KLAS)
Temperature  
Mean Temperature 96 °F 92 °F  
Max Temperature 107 °F 104 °F 115 °F (1973)
Min Temperature 86 °F 80 °F 60 °F (1941)
Degree Days  
Heating Degree Days 0 0  
Month to date heating degree days 0  
Since 1 June heating degree days 1  
Since 1 July heating degree days 0  
Cooling Degree Days 32 27  
Month to date cooling degree days 105  
Year to date cooling degree days 1305  
Since 1 June cooling degree days 755  
Growing Degree Days 46 (Base 50)    
Moisture  
Dew Point 45 °F    
Average Humidity 16    
Maximum Humidity 25    
Minimum Humidity 12    
Precipitation  
Precipitation 0.00 in 0.00 in 0.16 in (1949)
Month to date precipitation 0.02  
Year to date precipitation 2.10  
Snow  
Snow 0.00 in 0.00 in 0.00 in ()
Month to date snowfall 0.0  
Since 1 June snowfall 0.0  
Since 1 July snowfall 0.0  
Snow Depth -    
Sea Level Pressure  
Sea Level Pressure 29.72 in    
Wind  
Wind Speed 10 mph (SE)    
Max Wind Speed 23 mph    
Max Gust Speed 30 mph    
Visibility 10 miles    
Events Thunderstorm    
T = Trace of Precipitation, MM = Missing Value Source: NWS Daily Summary

Daily Weather History Graph

Daily Weather History Graph

Search for Another Location

Airport:

Trip Planner

Search our weather history database for the weather conditions in past years. The results will help you decide how hot, cold, wet, or windy it might be!

Date:

Astronomy

Jul. 04, 2013 Rise Set
Actual Time 5:28 AM PDT 7:59 PM PDT
Civil Twilight 4:58 AM PDT 8:29 PM PDT
Nautical Twilight 4:20 AM PDT 9:06 PM PDT
Astronomical Twilight 3:39 AM PDT 9:47 PM PDT
Moon 2:45 AM PDT (7/4) 5:09 PM PDT (7/4)
Length of Visible Light 15h 31m
Length of Day
14h 31m
Waning Crescent, 11% of the Moon is Illuminated
Jul 4
Waning Crescent
Jul 8
New
Jul 15
First Quarter
Jul 22
Full
Jul 29
Last Quarter

Hourly Weather History & Observations

Time (PDT) Temp. Dew Point Humidity Pressure Visibility Wind Dir Wind Speed Gust Speed Precip Events Conditions
12:15 AM 95.0 °F 46.4 °F 19% 29.72 in 10.0 mi NE 5.8 mph - N/A   Clear
12:35 AM 95.0 °F 41.0 °F 15% 29.72 in 10.0 mi Calm Calm - N/A   Clear
12:55 AM 93.2 °F 44.6 °F 19% 29.73 in 10.0 mi WNW 4.6 mph - N/A   Clear
1:15 AM 98.6 °F 39.2 °F 13% 29.72 in 10.0 mi NW 13.8 mph - N/A   Clear
1:35 AM 98.6 °F 39.2 °F 13% 29.72 in 10.0 mi NW 16.1 mph - N/A   Clear
1:55 AM 98.6 °F 39.2 °F 13% 29.72 in 10.0 mi NW 13.8 mph - N/A Thunderstorm Clear
2:15 AM 98.6 °F 39.2 °F 13% 29.72 in 10.0 mi NW 13.8 mph 18.4 mph N/A   Clear
2:35 AM 96.8 °F 39.2 °F 14% 29.71 in 10.0 mi NNW 13.8 mph - N/A   Clear
2:55 AM 96.8 °F 39.2 °F 14% 29.71 in 10.0 mi NNW 12.7 mph - N/A   Clear
3:15 AM 96.8 °F 39.2 °F 14% 29.71 in 10.0 mi NNW 12.7 mph - N/A   Clear
3:35 AM 96.8 °F 39.2 °F 14% 29.71 in 10.0 mi NNW 15.0 mph - N/A   Clear
3:55 AM 95.0 °F 39.2 °F 14% 29.71 in 10.0 mi NNW 10.4 mph 16.1 mph N/A   Clear
4:15 AM 95.0 °F 39.2 °F 14% 29.71 in 10.0 mi NNW 8.1 mph - N/A   Clear
4:35 AM 91.4 °F 44.6 °F 20% 29.72 in 10.0 mi NNE 4.6 mph - N/A   Clear
4:55 AM 89.6 °F 46.4 °F 22% 29.72 in 10.0 mi NNE 3.5 mph - N/A   Clear
5:15 AM 86.0 °F 46.4 °F 25% 29.72 in 10.0 mi NNE 4.6 mph - N/A   Clear
5:35 AM 87.8 °F 44.6 °F 22% 29.72 in 10.0 mi North 4.6 mph - N/A   Clear
5:55 AM 86.0 °F 46.4 °F 25% 29.73 in 10.0 mi North 4.6 mph - N/A   Clear
6:15 AM 91.4 °F 41.0 °F 17% 29.73 in 10.0 mi NNW 6.9 mph - N/A   Unknown
6:35 AM 91.4 °F 42.8 °F 18% 29.74 in 10.0 mi NNW 5.8 mph - N/A   Clear
6:55 AM 93.2 °F 46.4 °F 20% 29.74 in 10.0 mi NNE 5.8 mph - N/A   Clear
7:15 AM 93.2 °F 46.4 °F 20% 29.75 in 10.0 mi NE 5.8 mph - N/A   Clear
7:35 AM 95.0 °F 46.4 °F 19% 29.75 in 10.0 mi ENE 4.6 mph - N/A   Clear
7:55 AM 95.0 °F 44.6 °F 18% 29.76 in 10.0 mi East 4.6 mph - N/A   Clear
8:15 AM 96.8 °F 41.0 °F 15% 29.76 in 10.0 mi Calm Calm - N/A   Clear
8:35 AM 98.6 °F 41.0 °F 14% 29.77 in 10.0 mi NE 4.6 mph - N/A   Clear
8:55 AM 98.6 °F 41.0 °F 14% 29.77 in 10.0 mi Calm Calm - N/A   Clear
9:15 AM 100.4 °F 41.0 °F 13% 29.77 in 10.0 mi East 4.6 mph - N/A   Clear
9:35 AM 100.4 °F 39.2 °F 12% 29.77 in 10.0 mi SE 6.9 mph - N/A Thunderstorm Clear
9:55 AM 100.4 °F 41.0 °F 13% 29.77 in 10.0 mi ESE 11.5 mph - N/A   Clear
10:15 AM 100.4 °F 42.8 °F 14% 29.77 in 10.0 mi SSE 6.9 mph - N/A   Clear
10:35 AM 102.2 °F 42.8 °F 13% 29.78 in 10.0 mi ESE 12.7 mph - N/A   Clear
10:55 AM 102.2 °F 42.8 °F 13% 29.78 in 10.0 mi SE 12.7 mph - N/A   Clear
11:15 AM 102.2 °F 42.8 °F 13% 29.78 in 10.0 mi SE 3.5 mph 17.3 mph N/A   Partly Cloudy
11:35 AM 104.0 °F 42.8 °F 12% 29.78 in 10.0 mi SE 9.2 mph 19.6 mph N/A   Clear
11:55 AM 104.0 °F 41.0 °F 12% 29.78 in 10.0 mi South 15.0 mph - N/A   Partly Cloudy
12:15 PM 102.2 °F 44.6 °F 14% 29.78 in 10.0 mi SSE 15.0 mph 23.0 mph N/A   Clear
12:35 PM 104.0 °F 44.6 °F 13% 29.77 in 10.0 mi SSE 15.0 mph 20.7 mph N/A   Clear
12:55 PM 105.8 °F 44.6 °F 13% 29.76 in 10.0 mi SSE 19.6 mph 23.0 mph N/A   Clear
1:15 PM 107.6 °F 44.6 °F 12% 29.75 in 10.0 mi SSE 21.9 mph - N/A   Clear
1:35 PM 107.6 °F 44.6 °F 12% 29.75 in 10.0 mi SSE 19.6 mph 26.5 mph N/A   Clear
1:55 PM 107.6 °F 44.6 °F 12% 29.74 in 10.0 mi South 19.6 mph 24.2 mph N/A   Clear
2:15 PM 107.6 °F 44.6 °F 12% 29.73 in 10.0 mi SSE 20.7 mph 24.2 mph N/A Thunderstorm Clear
2:35 PM 107.6 °F 44.6 °F 12% 29.72 in 10.0 mi SSE 18.4 mph - N/A   Clear
2:55 PM 107.6 °F 44.6 °F 12% 29.71 in 10.0 mi SSE 19.6 mph 23.0 mph N/A   Clear
3:15 PM 107.6 °F 44.6 °F 12% 29.71 in 10.0 mi SSE 15.0 mph 23.0 mph N/A   Clear
3:35 PM 107.6 °F 44.6 °F 12% 29.69 in 10.0 mi SSE 16.1 mph - N/A   Clear
3:55 PM 107.6 °F 44.6 °F 12% 29.68 in 10.0 mi SSE 17.3 mph - N/A   Clear
4:15 PM 107.6 °F 44.6 °F 12% 29.67 in 10.0 mi SSE 19.6 mph 25.3 mph N/A   Clear
4:35 PM 107.6 °F 46.4 °F 13% 29.67 in 10.0 mi SSE 18.4 mph 25.3 mph N/A Thunderstorm Clear
4:55 PM 107.6 °F 48.2 °F 14% 29.66 in 10.0 mi SE 18.4 mph 25.3 mph N/A   Clear
5:15 PM 107.6 °F 48.2 °F 14% 29.65 in 10.0 mi SSE 17.3 mph 24.2 mph N/A   Clear
5:35 PM 105.8 °F 48.2 °F 14% 29.65 in 10.0 mi SE 17.3 mph 24.2 mph N/A Thunderstorm Clear
5:55 PM 105.8 °F 48.2 °F 14% 29.64 in 10.0 mi SSE 20.7 mph - N/A   Clear
6:15 PM 104.0 °F 50.0 °F 16% 29.64 in 10.0 mi SE 19.6 mph 27.6 mph N/A   Clear
6:35 PM 104.0 °F 50.0 °F 16% 29.64 in 10.0 mi SSE 21.9 mph 27.6 mph N/A Thunderstorm Clear
6:55 PM 104.0 °F 50.0 °F 16% 29.64 in 10.0 mi SSE 16.1 mph 25.3 mph N/A   Clear
7:15 PM 102.2 °F 50.0 °F 17% 29.65 in 10.0 mi SSE 23.0 mph 26.5 mph N/A   Clear
7:35 PM 102.2 °F 50.0 °F 17% 29.65 in 10.0 mi SSE 23.0 mph 27.6 mph N/A   Clear
7:55 PM 100.4 °F 50.0 °F 18% 29.65 in 10.0 mi SSE 23.0 mph 27.6 mph N/A   Clear
8:15 PM 100.4 °F 50.0 °F 18% 29.66 in 10.0 mi SSE 21.9 mph 29.9 mph N/A   Clear
8:35 PM 100.4 °F 51.8 °F 20% 29.66 in 10.0 mi SSE 16.1 mph 24.2 mph N/A   Clear
8:55 PM 100.4 °F 51.8 °F 20% 29.67 in 10.0 mi SSE 17.3 mph 24.2 mph N/A   Clear
9:15 PM 98.6 °F 51.8 °F 21% 29.68 in 10.0 mi SSE 17.3 mph 21.9 mph N/A   Clear
9:35 PM 98.6 °F 51.8 °F 21% 29.69 in 10.0 mi South 11.5 mph 19.6 mph N/A   Clear
9:55 PM 98.6 °F 51.8 °F 21% 29.70 in 10.0 mi SSW 5.8 mph - N/A   Clear
10:15 PM 98.6 °F 50.0 °F 19% 29.71 in 10.0 mi WSW 5.8 mph - N/A   Clear
10:35 PM 98.6 °F 50.0 °F 19% 29.71 in 10.0 mi South 13.8 mph 18.4 mph N/A   Unknown
10:55 PM 98.6 °F 50.0 °F 19% 29.72 in 10.0 mi South 5.8 mph - N/A   Clear
11:15 PM 98.6 °F 48.2 °F 18% 29.72 in 10.0 mi SSE 6.9 mph - N/A   Clear
11:35 PM 96.8 °F 48.2 °F 19% 29.72 in 10.0 mi SSE 4.6 mph - N/A   Clear
11:55 PM 95.0 °F 50.0 °F 22% 29.72 in 10.0 mi SE 4.6 mph - N/A   Clear